Regional Weather Roundup
Issued by NWS Grand Forks, ND

Home | Current Version | Previous Version | Text Only | Print | Product List | Glossary On
Versions: 1 2 3 4 5 6 7 8 9 10 11 12 13 14 15 16 17 18 19 20 21 22 23 24 25 26 27 28 29 30 31 32 33 34 35 36 37 38 39 40 41 42 43 44 45 46 47 48 49 50
000
ASUS43 KFGF 191210
RWRFGF
PRAIRIE TO PINES  WEATHER ROUNDUP
NATIONAL WEATHER SERVICE EASTERN NORTH DAKOTA/GRAND FORKS ND
700 AM CDT TUE SEP 19 2017

 **SATELLITE DATA USED TO AUGMENT SKY COVER AT AUTOMATED STATIONS**
 *****  WEATHER ACROSS EASTERN NORTH DAKOTA  *****

CITY           SKY/WX    TMP DP  RH WIND       PRES   REMARKS
GRAND FORKS    CLOUDY    59  59 100 SE12      29.77F FOG
6HR MIN TEMP:  59; 6HR MAX TEMP:  60;

GRAND FRKS AFB CLOUDY    59  59 100 SE10      29.77F FOG
DEVILS LAKE    CLOUDY    58  58 100 E16       29.69F FOG
6HR MIN TEMP:  56; 6HR MAX TEMP:  58;

FARGO          CLOUDY    61  61 100 SE12      29.76F FOG
WAHPETON ARPT  CLOUDY    61  59  94 SE10G16   29.79S VSB 3/4
$$

 ***** WEATHER ACROSS CENTRAL AND WESTERN NORTH DAKOTA  *****

CITY           SKY/WX    TMP DP  RH WIND       PRES   REMARKS
BISMARCK       FAIR      62  59  90 E14       29.55F
6HR MIN TEMP:  51; 6HR MAX TEMP:  62;

MINOT          LGT RAIN  55  50  83 E15       29.53F
6HR MIN TEMP:  50; 6HR MAX TEMP:  55; 6HR PCP: TRACE;

JAMESTOWN      CLOUDY    62  61  96 SE15G26   29.68F FOG
6HR MIN TEMP:  49; 6HR MAX TEMP:  62;

MINOT AFB      FAIR      53  50  88 E21G26    29.50F
GARRISON         N/A     61  56  83 E24G35    29.48F
WILLISTON      FAIR      60  48  64 E3        29.43F
6HR MIN TEMP:  60; 6HR MAX TEMP:  63;

DICKINSON      FAIR      58  51  78 SE9       29.44F
6HR MIN TEMP:  56; 6HR MAX TEMP:  61;

HETTINGER      MOCLDY    63  46  54 SW13      29.50R
6HR MIN TEMP:  59; 6HR MAX TEMP:  65;

$$

 *****  OTHER AIRPORT OBSERVATIONS IN OUR AREA  *****

CITY           SKY/WX    TMP DP  RH WIND       PRES   REMARKS
WALHALLA       FAIR     N/A N/A N/A SE9       29.75F
GRAFTON AIRPOR CLOUDY    57  57 100 SE10      29.79S FOG
VALLEY CITY AR FOG       61  61 100 SE12      29.74S VSB 1/2
CANDO          CLOUDY    57  57 100 SE15G21   29.71F
CAVALIER APRT  CLOUDY    57  57 100 SE7       29.76F FOG
GWINNER        CLOUDY    63  63 100 SE12      29.73F FOG
SHEYENNE NWR     N/A     61  61 100 SE13      29.95
ROLLA          CLOUDY    54  54 100 SE14G22   29.70S
 ***** THE ABOVE OBSERVATIONS ARE NON NWS ARE NOT QUALITY
       CONTROLLED AND MAY MIS-REPORT RAIN FOR SNOW...
$$

  *****  WEATHER ACROSS NORTHERN MINNESOTA  *****

CITY           SKY/WX    TMP DP  RH WIND       PRES   REMARKS
FLAG ISLAND    CLOUDY    55  54  94 SE12      29.86S
WARROAD        CLOUDY    55  52  88 SE10      29.87R FOG
ROSEAU         CLOUDY    57  52  82 SE7       29.85R HAZE
HALLOCK        CLOUDY    57  57 100 SE9       29.79F FOG
THF RVR FALLS  CLOUDY    56  54  93 E10       29.83F
6HR MIN TEMP:  56; 6HR MAX TEMP:  58;

BAUDETTE       CLOUDY    53  53 100 SE8       29.88F
6HR MIN TEMP:  53; 6HR MAX TEMP:  54;

WASKISH        CLOUDY    54  54 100 SE6       29.88S FOG
CROOKSTON      CLOUDY    57  55  94 SE9       29.80F FOG
$$
  *****  WEATHER ACROSS CENTRAL AND WEST MINNESOTA  *****

CITY           SKY/WX    TMP DP  RH WIND       PRES   REMARKS
FOSSTON        CLOUDY    54  54 100 SE5       29.83F
BEMIDJI        FOG       54  54 100 SE8       29.88R VSB 3/4
6HR MIN TEMP:  54; 6HR MAX TEMP:  55;

PARK RAPIDS    CLOUDY    56  55  97 SE7       29.87S FOG
6HR MIN TEMP:  55; 6HR MAX TEMP:  56;

ELBOW LAKE     CLOUDY    60  60 100 E13G18    29.82F FOG
WADENA         FOG       55  55 100 SE8       29.86S VSB 1/2
DETROIT LAKES  FOG       55  55 100 SE10      29.83F VSB 1
MOORHEAD       CLOUDY    61  59  94 SE10      29.78F FOG
FERGUS FALLS   CLOUDY    61  61 100 SE14      29.80F FOG
MORRIS MN      NOT AVBL
STAPLES        CLOUDY    55  55 100 SE6       29.87F FOG
$$
  *****  WEATHER ELSEWHERE ACROSS MINNESOTA  *****

CITY           SKY/WX    TMP DP  RH WIND       PRES   REMARKS
DULUTH         CLOUDY    55  55 100 SE10      29.95R
6HR MIN TEMP:  53; 6HR MAX TEMP:  55; 6HR PCP:  0.02;

INTRNTL FALLS  CLOUDY    54  51  90 SE6       29.92R
6HR MIN TEMP:  53; 6HR MAX TEMP:  55;

ELY            CLOUDY    55  54  94 CALM      29.96R
CLOQUET        CLOUDY    55  54  94 SE5       29.94S
WHEATON        CLOUDY    63  61  94 SE12      29.80S FOG
BRAINERD       CLOUDY    56  55  97 SE5       29.90S FOG
6HR MIN TEMP:  53; 6HR MAX TEMP:  56;

HIBBING        CLOUDY    53  53 100 SE5       29.94R
6HR MIN TEMP:  52; 6HR MAX TEMP:  53; 6HR PCP: TRACE;

ALEXANDRIA     FOG       58  58 100 SE10      29.86F VSB 1/2
6HR MIN TEMP:  56; 6HR MAX TEMP:  58;

SAINT CLOUD    CLOUDY    57  57 100 E6        29.89S
6HR MIN TEMP:  55; 6HR MAX TEMP:  57;

MINNEAPOLIS    FAIR      60  58  92 SE7       29.92S
6HR MIN TEMP:  59; 6HR MAX TEMP:  60;

$$

  *****  WEATHER ACROSS SOUTH DAKOTA  *****

CITY           SKY/WX    TMP DP  RH WIND       PRES   REMARKS
SIOUX FALLS    DRZL/FOG  66  66 100 S12       29.80S VSB 3/4
6HR MIN TEMP:  66; 6HR MAX TEMP:  68; 6HR PCP: TRACE;

BROOKINGS      CLOUDY    65  64  97 SE12      29.80F
WATERTOWN      CLOUDY    64  64 100 SE13      29.77S FOG
6HR MIN TEMP:  63; 6HR MAX TEMP:  64;

HURON          CLOUDY    67  65  93 SE12      29.71F
6HR MIN TEMP:  63; 6HR MAX TEMP:  67;

SISSETON         N/A     64  64 100 SE12      29.75F
ABERDEEN       CLOUDY    66  65  96 SE13      29.70F
6HR MIN TEMP:  61; 6HR MAX TEMP:  66;

MITCHELL       CLOUDY    67  65  93 SE15G24   29.72F
PIERRE         FAIR      61  58  90 SE13      29.59F
6HR MIN TEMP:  60; 6HR MAX TEMP:  63;

MOBRIDGE       FAIR      63  59  87 SE14      29.56F
RAPID CITY     CLEAR     57  46  67 SE7       29.56
$$

  *****  SOME WEATHER IN NEARBY STATES *****

CITY           SKY/WX    TMP DP  RH WIND       PRES   REMARKS
GLASGOW MT     LGT RAIN  50  46  86 NW14      29.50F
6HR MIN TEMP:  50; 6HR MAX TEMP:  63; 6HR PCP:  0.02;

GREAT FALLS MT FAIR      42  33  70 SW10      29.63S
6HR MIN TEMP:  42; 6HR MAX TEMP:  47;

CHEYENNE WY    FAIR      50  30  46 W10       29.78R
6HR MIN TEMP:  45; 6HR MAX TEMP:  57;

SCOTTSBLUFF NE FAIR      53  48  83 E8        29.67F
6HR MIN TEMP:  53; 6HR MAX TEMP:  66;

OMAHA NE       CLOUDY    68  64  87 SE13      29.83R FOG
6HR MIN TEMP:  67; 6HR MAX TEMP:  68;

DES MOINES IA  FOG       63  63 100 E6        29.89S VSB 1/4
6HR MIN TEMP:  63; 6HR MAX TEMP:  64;

DAVENPORT IA   CLOUDY    61  59  93 E5        29.97S FOG
6HR MIN TEMP:  60; 6HR MAX TEMP:  65;

CHICAGO IL     MOCLDY    66  63  90 N7        29.94S
6HR MIN TEMP:  66; 6HR MAX TEMP:  67; 6HR PCP:  0.07;

EAU CLAIRE WI  MOCLDY    57  55  93 E6        29.96S
6HR MIN TEMP:  57; 6HR MAX TEMP:  59;

LA CROSSE WI   MOCLDY    59  57  93 E7        29.96R
6HR MIN TEMP:  59; 6HR MAX TEMP:  62; 6HR PCP:  0.01;

$$

  *****  SOME NATIONAL WEATHER *****

CITY           SKY/WX    TMP DP  RH WIND       PRES   REMARKS
LA GUARDIA NY  CLOUDY    71  66  84 NE16      30.00F
6HR MIN TEMP:  71; 6HR MAX TEMP:  71;

RALEIGH NC     FAIR      67  65  93 VRB5      29.99S
6HR MIN TEMP:  65; 6HR MAX TEMP:  67;

ATLANTA GA     FAIR      67  64  90 NW5       30.03R
6HR MIN TEMP:  66; 6HR MAX TEMP:  71;

NEW ORLEANS LA FAIR      75  75 100 CALM      29.99R FOG
6HR MIN TEMP:  75; 6HR MAX TEMP:  78;

OKLAHOMA CITY  FAIR      70  69  97 S7        29.87R
6HR MIN TEMP:  69; 6HR MAX TEMP:  71;

ALBUQUERQUE NM FAIR      58  26  29 E7        30.07S
6HR MIN TEMP:  57; 6HR MAX TEMP:  67;

SALT LAKE CITY CLOUDY    57  53  86 N12       29.78R
6HR MIN TEMP:  57; 6HR MAX TEMP:  67; 6HR PCP:  0.02;

LOS ANGELES CA CLOUDY    67  61  81 SE3       29.90F
6HR MIN TEMP:  66; 6HR MAX TEMP:  68;

BOISE ID       LGT RAIN  48  44  86 VRB3      29.85R
6HR MIN TEMP:  46; 6HR MAX TEMP:  50; 6HR PCP: TRACE;

SEATTLE WA     CLOUDY



USA.gov is the U.S. government's official web portal to all federal, state and local government web resources and services.